Tracking 27126 objects as of 30-Mar-2023
HD Live streaming from Space Station
objects crossing your sky now

STARLINK-3337

Track STARLINK-3337 now!
10-day predictions
STARLINK-3337 is classified as:


NORAD ID: 50826
Int'l Code: 2022-001Z
Perigee: 546.2 km
Apogee: 547.5 km
Inclination: 53.2 °
Period: 95.4 minutes
Semi major axis: 6917 km
RCS: Unknown
Launch date: January 6, 2022
Source: United States (US)
Launch site: AIR FORCE EASTERN TEST RANGE (AFETR)
Your satellite tracking list
Your tracking list is empty




NASA's NSSDC Master Catalog

Two Line Element Set (TLE):
1 50826U 22001Z   23088.91980154  .00005443  00000-0  35968-3 0  9994
2 50826  53.2156 318.4411 0000882  81.8286 278.2807 15.08851944 68001
Source of the keplerian elements: AFSPC